Theta_e
333 333 333 332 331 331 331 330 331 332 329 329 329 329 329 330 330 332 331 330 329 328 328 328 329 329 329 330 330 328 326 327 326 324 322 321 320 321 320 318 315 315 315 316 317 318 318 318 318 318 318 317 318 318 318 318 318 319 319 320 320 320 321 323 325 327 329 330 333 336 338 340 342 342
332 332 332 332 331 331 330 331 332 331 328 328 328 328 328 327 327 328 330 331 330 330 329 329 329 329 329 330 330 329 328 328 326 323 322 321 320 320 319 317 315 314 315 316 317 318 318 318 318 318 317 317 317 317 318 318 319 319 319 319 319 320 320 320 322 324 327 328 329 331 333 336 338 340
332 332 331 331 331 331 331 331 331 330 329 328 328 329 328 327 327 326 327 330 330 330 330 330 329 329 329 329 328 328 327 326 324 323 323 322 321 320 319 318 317 316 316 316 317 318 318 318 318 317 317 317 317 317 317 317 318 319 319 319 319 319 320 320 320 321 324 327 328 329 330 332 334 336
333 333 331 331 331 332 331 329 330 330 330 329 329 330 329 328 329 329 329 328 328 328 329 329 328 328 328 328 326 325 324 324 324 324 323 323 322 321 320 319 318 317 317 317 317 318 318 318 317 316 316 316 317 317 317 317 317 318 318 319 319 319 319 320 320 320 321 323 326 329 329 330 332 334
332 332 331 331 331 332 331 330 330 331 331 330 330 330 329 329 330 332 331 329 326 326 326 328 328 327 327 327 325 324 324 323 323 324 323 323 322 320 320 319 319 319 318 318 319 319 318 317 316 316 316 316 317 318 318 318 318 317 317 318 318 319 319 320 320 320 320 321 323 327 329 330 331 333
332 331 331 330 330 331 332 330 329 330 331 330 330 330 330 330 329 330 330 330 328 326 324 325 326 328 328 328 326 325 325 323 323 324 325 324 322 321 320 320 321 322 320 319 319 319 318 317 315 316 316 317 318 318 318 318 318 318 317 317 317 317 318 319 320 320 320 319 321 324 327 329 330 332
332 331 331 331 330 331 332 330 329 330 330 329 329 329 328 328 328 327 327 328 328 326 324 323 324 326 328 328 326 324 323 323 323 325 326 325 322 320 320 320 322 324 324 322 321 320 318 316 316 316 316 317 319 318 318 318 318 318 318 318 317 317 317 317 319 320 320 320 320 321 324 328 330 331
330 330 332 331 330 330 331 331 330 330 331 330 330 329 329 329 330 328 327 327 328 327 326 324 323 323 323 324 324 324 323 323 323 324 326 325 323 321 321 321 323 324 324 324 323 322 320 319 318 319 319 319 319 319 319 319 319 319 319 318 318 318 317 317 317 319 320 320 320 320 322 325 329 331
325 328 330 331 330 330 330 330 331 332 332 332 331 330 329 330 331 330 329 327 327 328 328 324 322 322 322 322 323 324 325 325 324 324 325 324 324 324 324 324 324 324 324 324 325 325 324 323 322 322 321 321 320 320 321 321 320 319 319 318 318 318 318 318 317 318 320 320 320 320 320 323 326 329
326 329 330 331 330 329 329 330 331 331 332 332 332 331 329 328 329 330 331 330 329 330 331 329 326 325 325 325 324 323 324 325 325 324 324 325 326 326 326 325 325 325 325 325 325 325 325 324 324 323 323 322 322 321 321 321 321 320 320 318 318 319 319 318 318 317 319 320 320 320 320 321 324 327
330 331 331 331 330 330 330 331 331 332 332 332 333 332 330 330 330 331 333 333 332 332 333 332 330 328 328 328 326 324 324 326 327 326 326 326 326 325 325 325 325 325 325 325 325 325 325 325 324 324 323 322 322 322 322 321 321 321 320 319 319 320 320 319 319 318 319 320 321 320 320 321 322 325
330 331 331 330 329 330 331 330 330 331 332 332 331 331 331 330 330 331 332 333 333 333 331 330 330 330 330 330 329 327 327 328 327 326 326 326 325 325 326 325 325 324 324 324 324 325 325 325 325 325 324 322 322 322 322 322 322 321 321 321 321 321 321 321 320 320 320 321 321 321 320 320 321 324
332 333 334 332 331 330 328 327 329 329 330 329 328 328 328 327 327 328 328 329 331 331 329 329 329 328 329 331 330 328 327 327 326 325 326 326 326 326 325 325 324 323 323 323 324 325 325 325 324 323 323 322 322 323 323 323 323 323 322 322 321 320 321 321 321 322 322 322 321 321 320 320 321 323
334 334 334 334 333 331 327 328 330 330 330 329 328 326 325 324 325 325 325 325 328 328 328 328 328 328 328 329 329 328 327 326 326 326 326 327 326 325 324 324 324 323 323 324 325 325 324 322 322 321 321 322 323 323 324 323 323 322 322 321 321 320 321 321 321 321 323 323 322 321 320 320 320 322
331 331 331 331 332 331 330 331 332 332 331 329 327 325 324 324 324 325 324 324 324 326 327 326 325 326 327 326 327 327 326 325 326 326 326 326 326 326 325 325 324 324 324 325 326 325 323 321 321 320 320 322 322 322 322 322 321 320 320 321 321 321 321 321 321 321 322 323 323 321 320 320 320 321
329 330 330 331 330 331 332 332 331 331 330 328 326 324 324 325 325 325 324 323 323 324 325 325 323 324 324 323 324 324 323 324 324 324 322 322 325 326 325 324 325 325 325 325 325 324 322 321 320 320 321 322 322 321 321 321 320 320 320 320 321 321 321 322 322 321 322 323 323 322 321 320 320 320
329 330 331 331 331 331 332 331 329 329 328 328 327 325 325 325 325 325 324 323 323 323 322 323 322 320 321 322 321 320 321 323 322 322 322 322 322 325 325 324 325 325 325 324 324 323 323 322 322 321 321 321 321 320 319 319 319 320 320 320 321 321 321 322 321 322 322 322 322 322 321 320 320 320
331 332 332 332 331 331 331 329 328 328 328 328 328 326 325 326 325 326 326 325 325 325 323 323 323 323 324 324 322 319 318 319 319 321 322 322 322 324 324 324 324 324 323 323 323 323 323 323 322 321 321 320 320 320 320 318 318 319 319 320 321 321 322 322 322 322 322 322 322 322 321 320 321 321
332 332 331 331 331 330 329 328 327 328 326 326 326 325 325 326 325 326 327 327 327 326 324 323 323 324 324 322 318 315 314 314 315 319 321 322 322 323 323 323 322 323 323 322 322 322 322 322 321 321 320 320 320 320 320 318 317 318 320 321 322 323 323 323 323 322 322 322 322 322 322 321 321 321
333 331 329 329 329 328 328 327 327 327 326 325 325 325 326 326 325 325 326 326 325 323 322 322 322 321 318 315 313 312 313 315 318 320 321 321 322 322 322 322 322 322 322 321 321 322 322 321 321 321 320 320 320 319 318 318 318 319 321 322 324 325 325 325 324 323 322 323 322 322 322 321 321 321
330 329 328 328 328 327 327 327 327 326 326 325 325 325 326 326 325 325 325 325 324 323 323 322 319 316 314 313 312 313 316 319 320 320 320 321 321 321 321 322 322 321 321 320 320 321 321 319 319 320 321 320 319 318 318 318 320 320 321 323 325 327 327 326 325 324 323 323 323 322 322 321 321 322
326 326 326 327 326 326 326 327 326 326 325 324 323 324 325 325 325 325 325 325 324 323 321 318 316 315 315 314 314 315 317 321 321 320 321 321 321 321 321 321 320 320 320 319 319 319 319 316 317 319 320 319 317 318 319 319 320 321 322 324 326 327 328 328 327 325 323 323 323 322 322 322 321 322
323 323 324 325 325 325 326 326 325 324 322 322 323 324 324 324 324 324 324 323 321 318 315 315 317 318 318 317 317 317 319 320 320 320 321 321 320 320 320 320 319 319 319 319 319 319 317 314 316 319 319 318 318 319 319 319 320 321 322 324 327 328 328 328 328 327 325 323 323 322 322 322 322 324
323 323 324 325 326 325 325 324 322 321 321 323 323 323 323 323 323 321 319 316 314 312 313 316 318 319 319 319 319 319 319 319 319 319 319 319 319 319 318 318 318 318 318 318 317 316 314 314 317 318 318 319 319 319 319 319 320 321 322 323 327 329 329 329 329 329 326 324 323 322 322 322 323 326
325 325 326 326 325 323 322 321 320 321 322 323 323 322 322 321 318 314 313 312 312 315 317 319 319 319 319 319 319 319 318 318 318 317 317 316 316 316 316 316 316 316 315 313 311 311 314 317 318 318 318 319 319 319 320 320 320 321 322 324 327 330 330 330 330 330 329 326 323 322 323 323 324 327
328 327 326 325 322 320 320 320 321 322 323 323 322 321 319 316 313 312 312 312 313 315 317 318 317 317 318 318 318 317 317 317 316 315 314 314 313 313 312 311 311 311 309 308 309 313 317 319 318 318 318 319 319 319 320 320 321 321 322 325 328 329 329 330 331 332 331 328 325 323 323 324 326 328
327 325 323 320 318 318 319 320 322 322 322 322 321 318 315 312 312 311 311 313 314 314 314 315 316 317 317 317 316 316 315 315 314 313 312 311 309 308 306 305 306 306 307 309 313 317 319 319 318 318 319 319 319 319 320 320 321 322 323 325 327 328 328 330 332 333 332 331 328 324 323 325 328 330
323 320 319 317 317 319 320 322 322 322 321 320 317 314 312 311 311 311 312 315 315 313 313 315 316 317 316 315 315 314 314 313 311 309 308 307 306 305 304 304 305 306 309 313 317 318 318 319 319 319 319 319 319 320 320 321 322 322 324 326 327 328 329 330 332 333 333 332 331 326 324 327 330 332
318 317 317 317 319 320 321 322 322 321 320 318 314 312 311 311 311 312 314 315 314 314 314 315 315 315 314 314 313 312 311 309 307 307 308 307 306 306 308 307 306 308 313 317 318 318 319 320 319 319 319 319 320 320 321 321 323 324 326 327 328 328 329 329 331 333 333 333 332 329 327 329 331 332
317 317 318 319 320 321 321 321 321 320 318 315 312 311 311 311 311 313 313 312 312 312 313 313 313 313 312 312 311 310 308 307 307 308 310 309 308 309 312 311 310 312 317 318 318 318 319 319 319 319 320 320 320 321 322 322 324 326 328 328 329 330 331 331 331 334 335 335 334 332 330 331 332 332
318 318 319 320 320 320 320 320 319 316 314 311 311 311 312 312 312 311 310 310 310 309 309 310 311 311 310 310 310 309 308 308 308 309 310 309 310 312 313 314 314 317 319 319 318 318 318 318 318 319 319 320 320 322 323 323 325 326 328 329 330 330 332 333 333 335 337 337 335 334 334 333 333 333
320 319 318 319 320 320 319 319 318 316 314 313 313 312 312 312 311 310 309 309 309 309 309 309 309 309 309 309 309 308 307 308 308 308 308 310 311 313 314 315 317 319 320 319 318 317 317 318 318 318 319 320 321 322 322 323 324 326 327 328 329 329 331 333 335 335 337 337 337 337 337 336 335 334
321 321 320 320 320 320 319 319 318 317 316 316 315 314 313 311 311 310 310 310 310 310 310 309 308 309 309 308 307 307 307 307 307 307 308 310 312 314 315 316 318 319 319 319 318 317 316 317 318 318 319 320 321 322 322 321 322 324 326 327 328 329 331 333 335 336 336 337 338 338 338 338 337 336
320 321 321 321 320 319 319 318 317 316 316 315 315 314 313 312 311 311 310 309 309 309 308 307 307 308 307 306 306 306 306 306 306 307 309 312 313 314 316 317 318 319 319 319 318 317 317 317 317 318 319 319 320 321 321 321 321 322 323 325 327 329 330 332 334 336 336 337 337 337 338 338 338 338
320 321 321 320 319 318 317 317 316 316 315 314 314 313 312 312 312 310 309 309 308 307 305 306 307 306 306 306 306 306 305 305 306 307 310 312 314 315 316 317 318 318 319 319 318 317 317 317 317 318 319 319 320 321 321 320 320 320 322 323 325 327 330 332 333 335 336 337 338 337 337 337 338 339
320 321 320 319 318 317 316 316 316 315 314 313 313 312 312 311 310 309 308 308 306 304 303 304 304 304 305 305 305 305 305 305 306 307 310 312 313 315 316 316 317 318 318 319 318 317 317 317 317 318 319 319 319 320 320 320 320 320 321 322 323 325 328 331 333 335 336 338 338 338 338 338 338 339
320 319 318 318 317 316 316 316 315 315 314 313 311 311 310 310 309 308 307 305 303 302 302 302 303 304 305 304 304 304 305 305 306 307 309 311 313 315 316 316 316 317 318 318 318 317 317 317 317 317 318 319 319 320 320 320 320 320 320 321 322 324 326 330 333 335 337 338 338 338 339 339 338 339
319 318 317 317 316 316 316 315 315 314 313 312 310 310 309 308 307 305 303 303 303 303 302 303 304 304 303 303 304 304 304 305 306 307 308 310 312 314 315 315 316 317 318 318 318 318 317 317 318 317 317 319 319 319 320 320 320 320 320 320 321 322 325 328 331 334 336 338 338 338 338 339 340 340
316 317 317 316 316 316 315 315 314 313 312 311 309 309 308 306 305 303 302 303 303 300 300 302 303 302 301 303 304 304 304 305 306 307 308 309 311 312 313 314 316 317 317 318 318 318 317 317 318 317 317 318 319 319 319 319 319 319 320 320 320 321 323 326 329 331 332 335 337 338 338 339 340 340
316 317 316 316 316 315 315 314 313 312 310 310 309 308 307 305 302 301 302 303 300 297 299 302 303 301 302 303 303 303 303 305 306 306 306 308 310 311 312 314 315 316 316 317 318 318 318 317 318 318 317 317 317 318 319 319 319 319 320 319 319 320 321 323 326 328 330 332 334 337 339 339 340 340
316 316 316 315 315 314 313 313 312 310 309 309 307 306 306 304 300 298 299 299 296 295 299 303 303 302 303 303 303 303 304 305 305 305 305 307 310 311 312 313 315 315 316 317 317 318 318 318 318 318 317 316 316 317 318 319 319 319 319 319 319 319 320 320 322 325 329 330 330 333 337 340 340 341
316 316 315 315 314 313 312 312 310 309 309 307 306 305 305 302 298 295 297 298 297 297 300 303 303 302 302 302 302 303 304 304 304 304 305 307 308 310 311 313 314 315 316 316 317 317 318 319 319 319 318 316 316 317 318 318 317 317 317 318 318 319 320 320 320 322 326 330 329 330 334 338 339 340
315 315 314 314 313 312 311 310 309 308 307 306 305 304 303 300 299 299 300 300 300 301 302 302 302 302 302 302 302 303 303 303 303 304 305 306 307 308 311 312 313 314 315 316 316 317 318 319 319 320 319 317 315 316 317 317 317 317 317 318 318 318 319 320 320 321 324 329 330 330 332 335 338 340
315 314 313 313 312 311 310 309 308 307 306 304 304 302 299 298 300 301 301 300 300 300 300 300 300 301 302 301 301 302 303 302 302 304 306 305 305 307 309 311 313 314 314 315 316 316 317 318 319 319 318 317 315 315 316 317 316 317 317 317 318 318 318 319 320 322 324 328 331 331 331 333 334 336
314 313 313 313 311 310 310 309 307 306 304 302 301 299 296 296 298 300 300 300 299 297 297 299 300 300 300 299 300 301 302 302 303 305 305 305 305 306 308 311 313 313 313 314 315 315 316 317 318 319 318 316 315 315 315 315 316 316 317 317 317 317 317 317 318 319 321 324 327 329 331 332 332 333
Wind_Speed
10 10 11 12 11 11 11 12 12 12 13 13 13 13 12 13 14 15 15 15 15 14 15 15 15 16 17 15 14 16 17 17 17 18 18 19 19 20 20 19 18 18 18 18 18 19 19 19 19 20 21 22 23 23 25 26 28 29 31 32 33 33 34 36 40 42 43 42 42 42 41 40 39 38
11 11 12 12 12 12 11 12 13 13 13 13 12 12 12 13 15 16 18 18 15 14 15 16 16 18 19 18 18 19 19 19 20 19 19 19 19 19 20 21 20 20 19 19 20 20 21 21 22 22 23 23 23 23 23 24 26 28 29 31 33 35 35 35 37 40 43 44 44 44 43 42 41 39
12 12 12 12 12 12 12 13 13 13 12 12 12 12 13 14 15 17 19 21 19 16 16 18 20 20 21 21 21 21 21 21 21 20 19 19 19 19 20 21 22 21 21 21 21 22 23 23 24 24 24 24 23 23 23 23 24 25 27 29 32 34 36 37 37 38 41 44 46 46 45 44 43 42
12 13 13 13 13 13 14 13 13 12 12 12 12 13 14 15 16 16 18 22 24 21 18 20 22 22 22 22 21 22 23 22 22 21 21 20 21 22 23 23 24 24 24 24 24 24 24 25 26 26 26 25 24 24 24 24 24 24 25 27 30 33 35 37 38 39 40 42 45 47 47 46 45 43
12 13 14 14 14 14 14 13 12 11 11 13 14 14 15 15 15 15 16 20 24 23 21 21 22 23 22 23 23 23 23 23 23 24 24 22 23 24 25 26 26 26 28 28 27 26 26 27 28 28 28 27 27 26 27 27 26 25 25 26 27 30 34 36 39 40 41 41 43 46 48 48 47 45
13 13 14 15 14 14 15 13 11 11 12 13 14 14 14 16 16 15 16 18 21 22 22 22 23 23 21 21 24 25 25 24 23 23 23 22 23 25 26 27 26 26 28 29 28 27 29 30 30 29 30 30 30 29 29 29 28 27 27 28 28 30 32 35 38 40 42 42 43 45 47 49 48 47
13 14 15 16 15 14 15 14 12 13 14 15 15 15 16 17 17 17 17 18 20 22 22 21 22 23 22 23 25 27 27 26 24 22 21 21 24 25 27 28 27 26 27 28 27 28 30 32 31 31 30 31 32 32 30 29 29 30 32 32 33 34 34 35 37 40 42 43 44 44 46 48 49 48
14 15 16 17 15 14 15 15 14 15 16 17 17 17 18 18 18 18 18 18 20 21 21 22 22 23 24 25 26 27 26 26 25 24 22 22 25 26 26 27 27 26 27 27 27 27 29 30 32 33 32 31 31 33 33 31 30 32 35 37 39 39 38 37 37 39 42 43 45 45 45 47 48 49
14 16 17 17 16 15 16 16 16 16 17 18 18 19 19 19 19 20 21 20 20 20 21 23 24 24 25 26 26 25 25 26 27 27 25 24 25 25 25 24 26 27 27 27 25 25 27 31 35 37 35 33 34 36 37 35 36 37 37 39 42 40 37 37 37 38 41 43 44 46 46 46 48 49
16 17 17 17 17 17 17 18 18 17 18 18 19 20 21 21 21 22 22 21 21 20 20 21 24 25 25 25 25 24 25 27 28 28 27 25 23 24 25 26 27 27 27 27 26 25 28 31 33 33 33 34 36 37 39 40 42 42 40 41 42 37 33 35 37 38 40 42 44 46 46 46 47 49
16 17 17 18 18 18 18 19 19 19 19 19 18 20 21 21 22 23 22 20 19 19 19 20 22 25 26 26 25 26 26 26 26 26 26 25 25 27 28 28 27 25 26 28 28 27 28 30 30 30 32 37 39 40 43 43 43 43 43 43 43 38 32 32 34 36 39 41 42 45 47 47 47 48
17 17 17 18 18 18 18 19 19 19 20 21 20 21 21 22 22 22 22 20 18 19 20 20 21 23 25 25 24 24 24 24 25 26 27 28 30 30 28 27 26 27 29 31 30 28 26 27 28 31 36 42 43 42 43 42 41 43 42 41 43 43 38 34 33 34 36 39 42 43 46 47 47 48
17 17 17 18 18 19 19 20 20 21 22 23 23 23 23 23 24 25 26 23 21 22 22 22 22 23 23 22 23 24 24 24 26 27 27 29 29 29 29 29 30 30 32 34 33 29 26 28 32 36 42 44 40 36 37 38 38 40 40 40 43 46 44 40 37 35 34 37 41 43 45 46 47 47
18 18 18 19 21 21 21 22 23 24 25 25 25 24 23 23 25 27 29 26 24 25 24 24 25 23 21 22 24 26 27 27 27 26 26 27 29 32 33 33 31 30 32 33 31 28 28 34 41 44 43 39 34 33 36 37 38 40 44 45 45 45 45 43 41 40 37 36 39 43 45 45 46 46
22 22 22 23 25 24 22 24 26 27 26 25 24 23 22 23 25 27 29 29 27 26 26 27 28 26 25 26 26 27 30 29 27 26 27 28 29 30 32 32 31 29 29 29 29 31 35 39 42 43 39 34 32 34 37 40 42 45 48 49 46 44 44 43 42 41 40 38 39 42 44 45 45 45
24 25 24 26 27 25 24 25 26 26 27 24 22 21 22 24 25 27 28 29 29 28 27 29 31 30 29 30 29 29 30 29 27 29 31 31 29 28 30 33 31 27 26 28 32 37 38 37 39 42 37 32 33 35 39 43 47 48 49 50 49 46 44 44 42 41 41 40 40 41 43 45 45 45
26 26 27 28 28 28 27 26 26 29 30 26 21 20 22 24 26 26 27 28 29 30 30 31 32 32 31 32 32 30 28 28 29 30 31 31 30 29 31 33 31 29 27 28 31 35 33 31 34 37 35 33 35 39 43 46 47 49 50 50 50 47 46 46 44 42 41 41 42 42 44 45 46 46
27 27 28 27 28 29 29 28 30 31 29 24 21 22 23 25 26 25 26 26 26 27 29 29 28 27 27 29 31 31 30 31 32 32 32 33 32 31 32 32 31 29 25 24 30 35 33 30 33 35 34 36 39 41 44 47 49 51 52 50 49 48 47 47 46 44 42 42 43 44 45 46 47 47
28 28 28 29 29 29 29 30 30 28 24 22 23 24 25 26 26 24 24 23 22 24 27 28 28 27 28 29 32 33 34 35 36 34 33 32 30 29 29 28 27 26 24 24 31 38 37 33 35 37 36 37 40 42 47 53 56 54 51 48 45 43 42 43 44 45 44 42 42 45 46 47 47 47
28 28 29 30 30 29 30 30 27 22 21 23 24 24 24 24 24 23 23 23 24 26 29 32 32 32 31 30 31 32 32 32 31 28 25 24 23 23 24 25 26 27 27 27 30 37 39 36 36 38 36 38 45 51 56 58 57 52 47 43 38 35 35 37 39 42 43 41 41 44 46 47 48 47
28 29 30 30 30 28 28 26 23 21 22 23 24 24 22 21 22 22 22 23 24 26 28 31 32 31 30 30 29 28 27 24 21 20 20 20 20 22 25 27 29 30 30 30 30 34 39 41 39 38 39 43 52 58 59 56 51 48 45 40 35 32 31 32 34 37 38 38 41 45 46 46 47 46
28 29 29 29 29 27 25 23 22 22 23 23 23 22 21 21 22 21 20 20 21 23 26 28 28 26 27 29 27 25 22 19 18 21 23 21 20 24 28 29 32 34 33 32 31 33 40 45 42 40 44 51 56 57 55 53 50 47 45 40 35 33 31 30 30 32 35 38 40 44 46 45 45 45
27 28 27 27 25 23 21 22 22 23 23 22 20 20 20 20 20 19 18 18 20 24 27 26 22 20 21 23 22 21 21 20 21 23 24 22 22 26 29 30 33 35 34 31 31 35 41 44 42 40 44 52 57 57 53 52 50 46 44 39 34 32 31 29 27 27 30 37 40 42 45 45 44 45
27 27 25 22 20 19 20 21 22 22 21 19 19 20 19 17 18 20 20 21 24 26 25 22 18 17 17 18 18 19 20 20 21 21 22 22 22 25 28 29 30 33 36 36 36 37 40 42 41 41 42 46 54 58 54 51 48 46 44 39 32 31 30 28 26 25 27 34 39 41 43 44 44 45
21 21 19 17 19 20 20 21 21 20 19 18 19 21 19 17 20 21 21 23 24 21 17 16 16 16 16 17 18 19 21 21 20 20 20 21 23 25 28 29 30 35 40 41 38 38 39 39 40 43 46 47 52 56 54 49 47 47 44 36 30 29 28 25 26 26 26 31 39 42 43 44 45 46
14 15 15 17 21 22 21 21 20 19 19 18 18 20 20 19 20 20 20 21 20 17 15 15 16 16 16 18 19 20 21 20 19 21 23 26 29 31 31 31 33 37 40 39 36 34 35 37 40 44 47 49 50 54 52 47 46 47 43 34 28 29 28 26 27 27 24 27 35 41 42 43 45 46
13 16 18 22 24 22 21 21 20 18 18 17 17 18 18 18 19 19 20 17 15 17 18 17 15 15 17 19 20 20 20 20 22 27 31 32 33 32 31 30 30 33 35 34 31 30 31 36 41 44 46 48 50 52 50 46 45 46 43 35 30 29 29 28 26 25 24 24 29 36 40 42 44 46
17 19 22 23 23 21 20 20 18 17 17 17 16 17 16 17 18 18 16 12 13 17 18 16 14 15 17 18 19 19 21 25 30 32 31 30 29 28 28 29 28 29 30 29 28 28 30 35 41 43 44 47 48 49 48 46 46 44 40 34 30 29 28 26 22 23 25 25 26 30 37 43 45 45
19 20 21 21 21 20 19 18 17 17 17 16 15 15 15 16 17 15 12 11 13 15 15 14 14 16 16 17 19 22 27 30 30 28 26 26 26 26 26 27 28 28 26 24 25 28 31 35 40 42 43 43 44 45 44 44 43 40 34 31 30 29 26 24 23 24 27 29 27 28 34 42 45 46
19 20 20 19 19 18 18 18 17 16 15 15 15 15 16 15 13 12 12 13 14 15 15 15 15 15 16 19 23 27 28 26 24 22 22 24 25 24 23 25 27 25 21 21 24 27 30 34 37 39 39 40 41 40 39 39 38 35 30 27 27 26 23 22 22 20 23 27 26 26 32 39 43 46
18 18 18 17 18 18 17 17 16 14 13 15 15 14 14 12 12 13 14 16 17 18 17 16 16 17 20 23 24 24 22 20 19 20 21 22 23 22 22 23 24 21 18 19 24 27 29 31 34 35 36 38 38 34 30 28 29 28 26 25 25 23 21 22 20 16 22 28 27 27 31 36 40 44
14 16 17 15 15 15 13 13 12 11 11 13 12 11 10 11 13 15 15 16 17 17 17 17 19 21 22 21 20 19 18 18 19 19 20 21 20 19 19 21 22 20 19 20 23 27 29 30 32 34 34 35 33 27 22 21 21 21 22 24 25 24 22 21 19 15 20 27 28 27 28 32 38 41
10 12 13 11 11 11 10 10 11 11 12 12 11 10 12 12 12 12 13 13 13 14 16 20 21 20 18 17 17 17 18 18 18 19 20 20 19 18 19 21 21 20 19 20 22 27 32 33 33 33 33 33 28 21 20 23 22 21 22 21 22 22 20 18 17 15 17 21 26 26 24 26 33 39
10 10 10 10 10 10 10 11 12 12 11 10 9 9 12 12 11 11 12 11 12 15 18 20 18 16 16 16 16 17 17 18 19 19 19 18 18 19 20 21 20 18 17 18 21 26 32 34 34 34 34 34 29 22 21 24 25 25 25 22 20 20 18 14 14 14 16 19 22 24 22 23 28 35
9 9 10 10 10 10 10 11 11 11 10 9 8 9 10 10 11 11 11 11 15 18 18 16 14 14 14 15 16 16 17 18 19 18 18 17 18 19 19 19 19 18 17 18 20 24 30 35 37 37 38 38 36 29 25 25 26 28 28 25 21 21 18 13 11 13 15 18 19 20 21 23 26 29
8 9 10 10 10 10 10 11 12 12 11 9 9 9 10 10 10 10 11 15 19 18 15 12 12 13 14 15 16 16 17 17 18 18 17 17 18 20 20 20 20 19 17 17 19 23 29 34 36 37 39 39 38 35 30 26 25 26 28 27 25 23 19 13 10 12 15 18 19 20 21 24 27 28
8 9 10 10 9 10 10 11 12 12 12 11 10 9 10 10 10 12 15 18 16 13 11 12 12 12 13 14 15 16 16 16 17 17 17 17 18 21 22 22 23 21 17 15 17 22 27 31 34 36 37 37 38 38 35 29 25 24 26 28 27 24 21 16 10 10 14 19 21 22 23 24 26 29
7 8 10 10 10 11 11 12 12 12 13 12 10 10 10 10 11 13 15 14 11 10 10 11 11 12 13 14 14 15 16 16 16 16 16 17 18 21 22 23 25 24 18 15 16 18 23 28 32 33 35 35 36 37 36 32 29 26 25 26 26 24 21 17 12 9 12 17 21 22 22 24 25 26
7 8 10 10 10 12 12 11 11 12 12 11 10 9 10 11 11 12 10 9 9 10 9 9 10 12 13 13 14 15 15 16 16 16 16 17 18 20 21 22 25 24 20 18 18 16 19 25 29 30 32 33 31 31 31 30 28 25 22 22 24 22 20 18 14 11 10 14 19 21 20 23 26 26
7 8 9 10 10 12 12 11 11 11 11 10 10 11 12 11 10 9 7 8 9 9 8 9 10 12 12 13 14 14 15 15 15 15 16 17 18 19 20 21 24 23 20 21 22 18 17 22 26 26 29 30 28 27 28 28 26 24 22 21 21 21 20 20 18 14 10 10 15 20 22 24 25 27
8 8 9 9 10 11 11 10 11 11 10 10 10 12 13 11 9 8 7 7 8 8 7 9 10 11 12 13 13 14 15 15 15 15 16 17 17 19 20 21 22 21 20 23 23 19 17 20 22 22 24 27 28 28 31 31 30 28 26 22 19 18 18 19 20 17 11 9 12 18 24 27 25 25
8 8 9 9 10 10 10 10 11 11 10 10 10 12 12 10 8 7 6 7 8 7 8 9 10 11 12 12 13 14 14 14 15 15 16 16 17 19 20 20 20 21 21 22 22 19 18 20 21 20 21 24 27 29 31 31 30 29 28 25 20 17 16 17 19 19 14 10 13 16 18 22 24 23
8 7 8 9 10 10 10 10 11 11 11 11 12 12 10 7 6 6 6 6 7 7 8 9 9 10 11 12 13 14 14 14 15 15 15 16 17 18 19 19 20 21 22 22 22 20 18 17 18 19 19 22 25 27 28 30 31 29 27 26 24 21 19 18 19 20 15 8 10 13 12 14 22 24
8 7 8 9 11 10 10 11 12 12 12 12 11 10 7 5 6 6 6 6 7 7 8 8 9 10 11 12 13 13 13 14 14 15 15 16 16 17 18 18 19 20 22 23 23 21 18 17 17 17 16 20 25 26 26 29 33 31 28 28 27 26 25 24 22 20 16 9 5 8 10 8 10 15
9 8 9 10 11 11 11 12 12 12 11 10 8 7 6 6 6 6 6 7 8 7 7 8 9 10 11 12 13 14 14 14 14 14 14 15 16 16 17 17 18 19 21 23 23 22 21 20 19 17 16 18 23 26 27 29 32 32 31 31 32 31 29 28 27 25 24 22 17 9 6 8 6 5
Wind_Direction
263 265 269 272 272 271 274 278 279 278 281 285 288 291 293 294 296 298 297 295 294 295 296 296 291 289 293 292 288 295 299 299 302 306 303 301 299 299 299 295 289 285 284 287 290 290 287 287 290 294 298 300 298 295 291 287 283 278 274 270 269 267 263 259 255 252 251 251 251 251 251 251 251 250
268 268 268 270 274 276 276 275 274 277 283 288 292 293 294 295 296 297 297 295 291 291 291 291 288 289 293 293 289 293 296 296 301 303 300 298 298 297 297 297 294 291 287 286 288 291 292 292 294 297 300 301 301 299 296 293 289 285 280 274 270 267 265 263 259 255 251 250 249 250 250 249 249 249
269 268 266 265 267 269 268 268 272 278 283 286 288 288 291 294 295 298 297 294 292 292 290 290 291 289 291 292 292 294 295 296 300 301 297 295 294 295 295 295 294 292 289 287 288 290 293 295 298 300 301 301 300 300 299 297 295 292 288 283 277 272 267 263 261 258 254 250 248 248 249 248 247 247
264 266 266 265 264 266 267 270 276 279 281 284 286 286 290 292 292 292 291 292 296 297 292 291 294 294 292 293 295 297 298 298 299 299 298 295 295 297 298 298 298 296 295 293 291 291 293 297 300 302 303 302 300 301 302 300 298 296 294 290 286 280 274 267 262 259 256 252 249 247 247 247 247 246
258 263 266 266 264 264 266 270 274 277 280 285 287 289 292 294 292 286 283 289 296 299 298 296 296 297 296 296 298 300 299 299 300 298 297 296 297 299 300 301 301 300 301 300 297 293 294 298 302 303 304 303 302 303 304 304 301 297 296 295 293 289 283 276 268 262 257 254 251 248 245 245 245 245
258 261 263 264 262 262 267 270 270 273 277 282 286 287 289 293 295 291 285 287 292 296 299 299 299 300 298 295 299 301 301 302 301 296 294 294 296 299 301 302 300 297 298 300 298 295 297 299 301 302 301 300 300 302 305 305 304 302 300 299 298 295 290 283 276 268 261 256 252 249 246 244 244 243
260 263 262 263 263 262 265 267 268 273 279 286 291 291 293 295 298 299 295 289 290 295 298 298 299 300 298 296 299 303 304 304 302 295 290 290 294 299 300 300 296 291 292 296 296 295 296 296 296 297 295 294 295 298 302 305 305 306 307 305 303 300 294 287 280 273 266 259 254 250 247 244 242 242
259 262 261 262 263 260 261 263 267 274 282 289 292 295 298 296 294 298 299 292 290 292 295 297 297 297 299 300 301 304 305 305 304 299 292 291 295 298 299 299 296 294 295 296 296 296 295 297 301 302 298 296 298 301 304 305 305 306 307 306 304 303 298 288 280 274 269 263 257 251 247 244 241 240
256 257 259 260 261 261 262 263 268 273 282 290 294 298 302 301 296 295 295 294 292 287 288 295 299 297 298 300 301 301 302 302 304 302 296 294 295 297 298 298 298 298 299 297 295 296 297 299 304 306 304 303 306 308 306 306 306 305 305 306 304 301 297 288 277 272 268 264 259 254 248 245 241 239
258 260 261 261 260 260 262 266 271 275 281 288 292 298 304 307 305 298 291 290 290 286 283 289 294 296 296 296 297 300 300 300 301 300 296 293 293 295 298 298 297 298 297 295 292 291 292 294 299 303 303 304 305 306 305 304 305 303 304 310 307 299 293 286 274 268 264 262 260 255 250 245 241 238
259 262 264 265 265 264 265 268 273 280 286 289 292 296 300 302 303 299 291 285 284 283 281 283 289 293 293 291 295 302 303 299 298 298 295 292 292 295 297 297 297 296 296 295 293 292 292 294 299 300 301 303 304 304 302 300 301 301 303 310 309 300 293 285 272 263 260 259 259 256 251 246 242 238
261 264 265 266 267 267 269 274 280 285 287 289 291 293 294 296 298 297 292 287 283 282 282 283 285 288 291 291 293 300 300 295 296 298 295 292 293 295 296 294 294 296 296 295 294 292 290 291 293 294 297 302 302 299 298 297 298 301 302 304 303 296 293 289 277 265 257 255 255 255 252 247 243 239
264 267 269 269 271 271 274 281 287 286 284 285 287 289 291 294 298 297 294 290 285 284 285 285 285 287 290 291 292 296 297 294 297 299 296 294 294 296 295 293 295 297 297 297 295 292 289 291 296 298 300 302 300 295 294 294 295 296 294 294 295 290 287 287 281 271 262 254 251 252 251 248 243 240
265 268 270 273 275 275 278 284 288 287 286 285 283 284 287 290 294 294 293 289 285 285 287 287 287 287 287 290 293 296 299 299 301 301 298 296 297 298 299 297 297 298 299 298 294 290 294 300 304 305 303 301 298 294 292 292 292 292 290 290 292 287 281 282 280 273 265 257 250 248 247 246 243 241
270 274 275 276 279 282 286 290 292 294 294 289 280 279 282 285 288 289 289 287 284 285 286 287 288 288 289 293 295 296 300 302 302 300 299 298 298 300 301 300 298 299 300 297 291 292 299 305 307 307 303 298 295 293 292 292 294 295 293 290 289 284 278 278 278 272 264 256 250 246 244 242 241 240
271 275 278 279 283 287 289 292 297 299 296 288 276 274 279 284 286 285 284 284 284 285 287 288 290 291 292 295 297 298 300 300 300 299 298 299 298 296 297 297 298 298 297 294 292 294 300 306 307 305 302 298 294 294 295 296 295 295 292 288 285 281 276 274 274 271 264 256 249 244 241 239 238 237
270 274 278 279 282 285 286 293 300 299 295 287 276 277 283 286 287 285 281 281 282 284 286 287 288 291 294 296 298 300 299 298 299 299 297 299 299 296 294 295 295 293 292 291 292 293 297 303 304 301 299 297 294 294 297 298 294 291 290 287 283 279 275 272 270 268 264 257 250 243 238 236 235 234
269 273 277 280 282 283 287 294 297 295 293 289 285 286 288 288 290 287 285 286 287 287 289 288 289 291 292 293 296 298 296 294 294 295 295 297 297 294 292 291 291 291 292 293 291 289 293 300 300 297 296 296 295 294 297 301 299 294 293 292 287 281 276 272 268 265 262 257 251 244 237 233 232 232
269 273 277 279 281 283 288 291 291 289 289 288 288 288 286 287 290 288 284 285 285 285 288 287 286 287 289 290 293 294 293 292 291 291 292 293 292 290 290 291 291 292 293 293 290 288 292 299 298 295 295 295 296 297 300 304 305 301 298 296 291 284 278 272 265 261 259 255 249 242 236 231 230 229
270 275 279 280 280 284 288 289 287 286 287 288 287 286 285 287 289 288 284 281 281 282 283 283 284 287 290 293 293 293 293 292 292 293 292 290 290 291 291 292 292 292 292 292 290 289 293 299 298 295 295 297 300 303 306 308 307 305 303 301 296 287 280 273 263 257 255 251 243 237 234 230 228 227
275 280 280 278 279 285 288 287 286 286 288 288 286 284 285 285 285 285 283 283 288 289 286 287 292 296 299 301 300 299 296 291 292 298 297 293 292 293 291 292 293 294 293 293 291 289 295 302 302 297 298 301 304 306 309 309 307 306 306 304 297 289 283 278 268 257 250 245 237 233 231 228 226 225
279 279 277 275 278 284 287 285 285 288 288 287 285 283 283 284 283 284 285 286 290 289 288 293 298 302 305 306 305 305 302 295 295 300 298 294 292 292 292 293 296 296 293 294 296 296 299 305 306 302 303 306 306 307 308 309 308 307 307 305 297 289 284 282 275 263 251 242 234 230 228 226 224 223
278 279 278 279 280 282 283 283 285 287 286 285 283 282 282 283 282 283 284 286 287 288 291 295 297 298 301 303 305 308 308 303 301 300 298 295 293 293 294 295 297 297 295 297 300 300 302 305 305 305 308 308 307 307 309 310 308 305 304 303 296 288 283 278 275 270 254 240 232 228 225 223 221 220
280 282 283 283 282 281 282 285 286 286 286 285 283 282 281 280 280 281 285 288 291 293 295 295 295 297 300 302 305 305 303 301 300 297 296 295 294 294 294 295 296 294 293 297 300 301 302 304 304 306 310 307 305 307 310 309 306 302 302 301 293 288 285 276 270 270 258 241 232 227 225 222 218 217
278 280 281 282 286 288 288 288 288 287 288 286 283 282 280 280 284 287 289 292 294 295 294 294 296 299 299 300 300 298 296 297 297 296 294 293 294 294 294 295 294 292 294 299 302 303 302 303 305 310 312 308 304 305 308 307 302 300 302 300 288 282 284 279 269 267 261 247 235 227 224 221 217 214
270 273 278 285 291 294 292 290 290 289 288 285 281 281 283 286 289 291 292 295 296 294 291 292 295 298 300 301 300 298 298 297 295 296 297 297 298 297 296 296 295 294 297 303 306 305 303 303 309 312 310 306 304 304 306 304 300 300 302 298 285 278 283 286 275 262 256 249 238 229 224 221 216 213
272 277 284 290 294 295 291 289 289 287 285 283 281 283 287 290 291 294 296 296 294 295 297 297 298 300 301 300 299 298 298 297 298 300 302 303 302 301 301 301 299 298 300 304 308 310 306 306 311 312 309 306 305 305 305 301 298 299 298 295 288 283 287 292 280 255 243 242 240 232 224 219 215 212
279 285 289 292 294 292 288 287 286 284 283 284 285 288 290 293 295 298 297 291 289 298 302 301 298 298 298 297 297 298 299 301 304 307 307 307 307 308 309 308 307 305 305 307 313 317 311 307 311 313 311 308 306 305 303 299 296 295 294 293 290 286 289 294 285 256 235 229 234 232 222 215 212 211
284 287 287 287 288 288 286 285 285 285 286 288 290 292 293 296 299 298 294 290 295 302 304 299 296 297 297 296 297 300 304 308 311 312 311 311 312 314 313 311 311 310 310 314 321 321 315 312 313 315 315 313 310 306 301 296 292 290 290 291 288 286 291 296 286 260 232 220 226 229 220 214 212 210
284 286 286 286 286 285 284 285 286 287 290 293 295 296 300 302 299 294 295 300 304 305 304 301 298 298 298 300 302 306 310 313 314 313 311 313 316 318 315 312 312 313 314 318 322 321 317 318 321 322 320 318 316 310 301 294 292 291 290 287 287 289 295 297 287 259 227 218 224 226 220 216 215 213
284 285 285 285 283 283 285 287 286 285 290 296 299 300 302 300 294 295 301 306 307 308 307 304 301 302 304 306 309 310 311 312 312 311 312 315 317 318 316 312 311 313 315 317 323 328 327 327 330 331 328 325 323 317 309 303 300 298 293 287 289 293 293 293 291 260 226 225 229 227 223 220 219 217
285 288 287 283 282 287 293 296 291 283 284 294 299 296 291 292 297 305 312 313 312 312 311 308 308 309 309 309 309 310 310 310 312 314 317 319 318 317 317 314 311 314 315 316 325 336 339 338 338 338 337 335 329 322 323 326 320 312 307 300 298 298 292 290 293 267 232 228 226 223 227 227 222 220
275 280 283 280 277 279 282 284 283 277 276 283 287 288 296 302 303 305 310 311 308 307 307 309 310 309 307 307 308 310 311 312 315 319 322 324 322 319 317 315 314 315 316 317 327 339 344 346 345 344 345 345 338 330 337 343 338 330 327 321 313 308 298 287 282 266 245 232 218 211 220 229 226 223
262 257 263 267 269 272 273 275 276 273 272 274 274 281 297 306 303 301 304 304 302 304 308 309 308 305 305 307 309 311 312 314 319 323 324 325 324 322 321 320 318 317 317 319 327 339 346 349 349 347 350 354 353 348 347 348 346 340 335 330 325 323 314 293 269 255 250 243 223 210 215 225 226 225
259 254 262 268 270 274 275 277 277 274 273 275 278 284 294 299 300 302 302 300 303 309 311 309 304 304 306 308 310 312 314 316 321 324 324 325 326 325 324 323 321 320 321 322 328 340 348 351 350 349 351 356 357 355 352 351 349 345 340 335 332 333 327 302 264 243 243 242 230 218 219 222 222 223
255 258 269 272 270 271 274 278 280 281 281 282 286 293 297 298 299 298 294 298 306 311 310 305 304 307 308 309 311 313 315 318 321 323 325 326 328 329 330 332 331 328 324 324 332 345 352 354 354 352 351 352 353 352 353 355 354 349 346 342 338 337 335 319 276 245 240 239 231 222 221 222 222 222
253 263 270 269 267 270 274 278 281 283 284 284 288 294 296 297 299 297 298 305 311 311 308 308 310 310 309 311 314 315 317 319 320 322 325 325 327 333 340 344 344 339 330 325 335 346 353 356 357 357 354 352 350 348 349 356 360 356 350 346 342 337 333 327 303 259 243 239 235 230 224 222 224 225
245 261 267 264 266 269 271 276 280 280 281 283 288 294 296 297 299 301 306 312 311 305 307 311 309 308 311 315 317 317 319 320 320 322 326 324 327 336 342 346 348 347 339 328 328 339 349 353 356 358 357 354 349 346 347 351 358 0 354 349 346 341 333 324 310 276 251 243 242 240 232 225 224 225
245 258 261 260 263 266 267 272 276 276 277 279 284 292 296 299 302 304 307 307 299 299 307 309 306 312 318 320 320 319 319 320 320 323 326 325 327 333 335 340 348 351 342 331 327 332 343 349 352 356 358 356 352 350 349 351 356 360 357 352 352 352 344 332 316 293 270 256 252 250 243 234 228 225
256 257 256 257 261 263 265 270 271 270 270 274 282 289 292 294 299 299 295 292 295 304 313 311 311 319 322 321 321 321 320 320 321 323 325 326 328 330 332 339 347 346 336 331 331 329 334 344 350 354 357 357 358 359 1 0 1 3 3 358 358 1 359 350 335 312 288 271 266 257 243 232 226 223
256 259 259 261 262 261 264 268 267 267 269 275 285 291 293 294 293 286 281 287 295 307 317 316 316 321 322 321 323 323 321 322 322 323 326 328 328 331 335 341 343 340 334 333 332 329 330 339 346 350 354 359 4 9 9 6 3 3 5 4 3 8 14 8 355 336 307 284 285 270 242 223 218 219
256 258 260 263 262 260 262 265 263 265 271 277 283 288 292 296 293 286 288 299 305 315 322 318 317 321 322 323 325 324 322 323 323 324 328 330 329 331 335 337 338 339 338 335 331 330 334 340 343 347 352 1 12 16 13 8 3 2 5 9 11 17 27 29 20 6 343 304 293 286 252 216 205 209
258 253 255 260 258 256 257 258 258 263 271 277 281 283 284 283 282 284 292 299 302 310 314 312 316 323 323 324 327 326 324 323 324 326 330 331 330 331 333 334 337 339 339 336 334 336 338 342 346 350 356 10 20 20 15 13 11 8 9 13 15 19 29 40 45 36 18 332 290 291 275 219 201 206
255 254 259 260 256 255 256 254 257 266 275 279 281 281 274 262 261 270 280 287 294 302 307 312 321 324 321 323 328 326 324 326 329 330 330 330 332 333 331 332 336 339 340 344 347 348 347 349 354 358 8 25 31 27 21 19 17 15 15 19 21 23 26 31 42 50 47 32 339 298 290 268 222 209
251 255 260 261 261 261 257 254 258 269 276 277 273 269 264 256 256 268 279 286 292 300 307 315 320 318 319 326 329 327 328 333 333 331 330 332 334 335 334 335 338 340 344 351 356 354 353 357 3 8 19 34 39 35 30 26 22 20 21 25 28 30 28 26 31 43 52 53 52 41 342 322 313 232